Flag for France Weather past 2 weeks in Limoges, France

Now
41 °F

Mostly cloudy.


Feels Like: 32 °F
Forecast: 35 / 40 °F
Wind: 21 mph from West

Location: Limoges Airport

Current Time: Jan 30, 2015 at 2:18:10 PM

Latest Report: Jan 30, 2015 at 2:00 PM


Visibility: N/A

Pressure: 29.12 "Hg

Humidity: 81%

Dew point: 36 °F

Location of LimogesLocation

Historic Weather in Limoges — Graph

°F

Limoges temperature yesterday

Maximum temperature yesterday: 45 °F (at 12:00 AM)
Minimum temperature yesterday: 39 °F (at 5:00 AM)
Average temperature yesterday: 42 °F

Past Weeks' High & Low Weather Summary

 TemperatureHumidityPressure
High50 °F (Jan 15, 1:30 PM)100% (Jan 16, 3:30 AM)30.48 "Hg (Jan 16, 3:30 AM)
Low25 °F (Jan 24, 3:00 AM)61% (Jan 21, 2:30 PM)29.12 "Hg (Jan 29, 6:00 PM)
Average36 °F90%29.97 "Hg
* Reported Jan 15 1:00 PM — Jan 30 1:00 PM, Limoges, Weather by CustomWeather, © 2014

Note: Actual official high and low records may vary slightly from our data, if they occured in-between our weather recording intervals... More about our weather records

Advertising

Limoges weather history for previous 24 hours

 ConditionsComfort  
Time TempWeatherWind HumidityBarometerVisibility
1:00 PM
Jan 30
37 °FMostly cloudy.13 mph87%29.15 "HgN/A
12:30 PM37 °FOvercast.14 mph87%29.18 "HgN/A
12:00 PM36 °FLow clouds.13 mph93%29.18 "HgN/A
11:30 AM36 °FLight rain. Partly sunny.13 mph87%29.21 "HgN/A
11:00 AM36 °FBroken clouds.10 mph87%29.21 "HgN/A
10:30 AM34 °FPartly sunny.9 mph87%29.24 "HgN/A
10:00 AM32 °FMore clouds than sun.8 mph93%29.24 "HgN/A
9:30 AM32 °FClear.7 mph93%29.24 "HgN/A
9:00 AM30 °FClear.6 mph93%29.27 "HgN/A
8:30 AM30 °FClear.6 mph93%29.27 "HgN/A
8:00 AM30 °FClear.8 mph100%29.27 "HgN/A
7:30 AM32 °FPassing clouds.7 mph93%29.27 "HgN/A
7:00 AM32 °FPassing clouds.8 mph93%29.27 "HgN/A
6:30 AM32 °FPassing clouds.9 mph93%29.27 "HgN/A
6:00 AM34 °FMostly cloudy.13 mph87%29.27 "HgN/A
5:30 AM34 °FOvercast.12 mph87%29.27 "HgN/A
5:00 AM34 °FOvercast.12 mph87%29.24 "HgN/A
4:30 AM36 °FOvercast.12 mph87%29.24 "HgN/A
4:00 AM36 °FOvercast.14 mph87%29.24 "HgN/A
3:30 AM36 °FMostly cloudy.13 mph93%29.21 "HgN/A
3:00 AM36 °FPartly cloudy.9 mph93%29.21 "HgN/A
2:30 AM36 °FMostly cloudy.9 mph87%29.21 "HgN/A
2:00 AM36 °FOvercast.8 mph87%29.21 "HgN/A
1:30 AM36 °FClear.9 mph87%29.18 "HgN/A
1:00 AM36 °FLight rain. Partly cloudy.12 mph87%29.18 "HgN/A
12:30 AM34 °FPartly cloudy.14 mph93%29.18 "HgN/A
12:00 AM41 °FMostly cloudy.14 mph87%29.15 "HgN/A
11:30 PM
Jan 29
41 °FPassing clouds.14 mph87%29.15 "HgN/A
11:00 PM41 °FMostly cloudy.13 mph93%29.15 "HgN/A
10:30 PM41 °FLight rain. Passing clouds.15 mph93%29.15 "HgN/A
10:00 PM41 °FHeavy rain. Fog.21 mph87%29.15 "Hg2 mi
9:30 PM43 °FMostly cloudy.16 mph87%29.15 "HgN/A
9:00 PM43 °FOvercast.20 mph87%29.15 "HgN/A
8:30 PM43 °FLight rain. Passing clouds.17 mph93%29.12 "HgN/A
8:00 PM43 °FLight rain. Partly cloudy.17 mph93%29.12 "HgN/A
7:30 PM45 °FLight rain. Mostly cloudy.22 mph93%29.12 "HgN/A
7:00 PM45 °FRain. Mostly cloudy.18 mph93%29.12 "Hg6 mi
6:30 PM45 °FLight rain. Mostly cloudy.9 mph93%29.12 "Hg5 mi
6:00 PM45 °FRain. Fog.12 mph93%29.12 "Hg2 mi
5:30 PM43 °FRain. Low clouds.16 mph100%29.15 "Hg4 mi
5:00 PM43 °FLight rain. Low clouds.15 mph100%29.18 "Hg5 mi
4:30 PM43 °FRain. Fog.12 mph93%29.21 "Hg1 mi
4:00 PM43 °FLight rain. Low clouds.10 mph93%29.27 "Hg4 mi
3:30 PM41 °FLight rain. Mostly cloudy.10 mph100%29.30 "Hg4 mi
3:00 PM41 °FRain. Mostly cloudy.13 mph93%29.36 "Hg5 mi
2:30 PM41 °FRain. Mostly cloudy.13 mph93%29.39 "Hg5 mi
2:00 PM41 °FRain. Mostly cloudy.15 mph93%29.42 "Hg6 mi
Weather by CustomWeather, © 2014

See weather overviewHow to use our weather pages